When you browse on this site, cookies collect data to enhance your experience and personalize the content and advertising you see.
Visit our Privacy Policy to learn more. By continuing to use the site, you agree to this use of cookies and data.
  • Em Portugal
  • Lista de países
  • Para 7 dias
  • Temperatura da água
  • Mapa do tempo
  • Widgets de tempo
  • user-avatar
    Iniciar Sessão

    Previsão horária em Ropotamo

    Hoje, 27 Maio, Quarta-feira

    Tempo Temperatura Precipitação Vento Pressão Humidade
    00:00 +10°C° 0 mm 2 m/s 761 mmHg 91%
    01:00 +10°C° 0 mm 2 m/s 761 mmHg 91%
    02:00 +10°C° 0 mm 2 m/s 761 mmHg 91%
    03:00 +10°C° 0 mm 3 m/s 761 mmHg 92%
    04:00 +9°C° 0 mm 3 m/s 761 mmHg 92%
    05:00 +8°C° 0 mm 4 m/s 761 mmHg 92%
    06:00 +11°C° 0 mm 4 m/s 761 mmHg 86%
    07:00 +13°C° 0 mm 5 m/s 761 mmHg 80%
    08:00 +15°C° 0 mm 5 m/s 761 mmHg 74%
    09:00 +16°C° 0.1 mm 6 m/s 761 mmHg 70%
    10:00 +16°C° 0.1 mm 6 m/s 761 mmHg 66%
    11:00 +17°C° 0.1 mm 7 m/s 761 mmHg 62%
    12:00 +17°C° 0.2 mm 6 m/s 760 mmHg 63%
    13:00 +17°C° 0.2 mm 6 m/s 760 mmHg 65%
    14:00 +17°C° 0.2 mm 6 m/s 760 mmHg 67%
    15:00 +17°C° 0.2 mm 5 m/s 760 mmHg 70%
    16:00 +17°C° 0.2 mm 4 m/s 760 mmHg 73%
    17:00 +17°C° 0.2 mm 3 m/s 759 mmHg 76%
    18:00 +14°C° 0.1 mm 3 m/s 759 mmHg 81%
    19:00 +14°C° 0.1 mm 2 m/s 760 mmHg 86%
    20:00 +12°C° 0.1 mm 1 m/s 760 mmHg 91%
    21:00 +12°C° 0 mm 1 m/s 760 mmHg 91%
    22:00 +12°C° 0 mm 2 m/s 760 mmHg 92%
    23:00 +12°C° 0 mm 2 m/s 759 mmHg 92%

    Amanhã, 28 Maio, Quinta-feira

    Tempo Temperatura Precipitação Vento Pressão Humidade
    00:00 +12°C° 0 mm 2 m/s 759 mmHg 93%
    01:00 +10°C° 0 mm 3 m/s 759 mmHg 93%
    02:00 +10°C° 0 mm 3 m/s 759 mmHg 94%
    03:00 +10°C° 0.1 mm 3 m/s 759 mmHg 94%
    04:00 +10°C° 0.1 mm 3 m/s 759 mmHg 94%
    05:00 +10°C° 0.1 mm 3 m/s 759 mmHg 94%
    06:00 +12°C° 0 mm 3 m/s 759 mmHg 89%
    07:00 +13°C° 0 mm 4 m/s 759 mmHg 83%
    08:00 +15°C° 0 mm 4 m/s 759 mmHg 78%
    09:00 +17°C° 0.2 mm 4 m/s 759 mmHg 75%
    10:00 +18°C° 0.2 mm 3 m/s 758 mmHg 72%
    11:00 +19°C° 0.2 mm 3 m/s 758 mmHg 69%
    12:00 +19°C° 0.4 mm 2 m/s 758 mmHg 69%
    13:00 +19°C° 0.4 mm 2 m/s 758 mmHg 69%
    14:00 +20°C° 0.4 mm 1 m/s 757 mmHg 68%
    15:00 +20°C° 0.7 mm 1 m/s 757 mmHg 71%
    16:00 +20°C° 0.7 mm 1 m/s 757 mmHg 74%
    17:00 +19°C° 0.7 mm 1 m/s 757 mmHg 76%
    18:00 +18°C° 0.1 mm 1 m/s 757 mmHg 79%
    19:00 +16°C° 0.1 mm 1 m/s 757 mmHg 83%
    20:00 +14°C° 0.1 mm 1 m/s 757 mmHg 86%
    21:00 +14°C° 0 mm 1 m/s 757 mmHg 86%
    22:00 +13°C° 0 mm 2 m/s 757 mmHg 86%
    23:00 +13°C° 0 mm 2 m/s 757 mmHg 86%

    Depois de amanhã, 29 Maio, Sexta-feira

    Tempo Temperatura Precipitação Vento Pressão Humidade
    00:00 +13°C° 0 mm 2 m/s 757 mmHg 86%
    01:00 +12°C° 0 mm 2 m/s 757 mmHg 85%
    02:00 +12°C° 0 mm 2 m/s 756 mmHg 85%
    03:00 +12°C° 0 mm 2 m/s 757 mmHg 85%
    04:00 +11°C° 0 mm 3 m/s 757 mmHg 86%
    05:00 +11°C° 0 mm 3 m/s 757 mmHg 87%
    06:00 +13°C° 0.1 mm 3 m/s 757 mmHg 82%
    07:00 +16°C° 0.1 mm 3 m/s 757 mmHg 77%
    08:00 +18°C° 0.1 mm 3 m/s 757 mmHg 73%
    09:00 +19°C° 0.3 mm 3 m/s 757 mmHg 72%
    10:00 +19°C° 0.3 mm 2 m/s 757 mmHg 71%
    11:00 +20°C° 0.3 mm 2 m/s 757 mmHg 70%
    12:00 +20°C° 0.4 mm 2 m/s 757 mmHg 69%
    13:00 +21°C° 0.4 mm 2 m/s 756 mmHg 69%
    14:00 +21°C° 0.4 mm 2 m/s 756 mmHg 69%
    15:00 +21°C° 0.6 mm 2 m/s 756 mmHg 72%
    16:00 +20°C° 0.6 mm 3 m/s 756 mmHg 76%
    17:00 +20°C° 0.6 mm 3 m/s 756 mmHg 79%
    18:00 +19°C° 0.1 mm 3 m/s 756 mmHg 81%
    19:00 +17°C° 0.1 mm 3 m/s 756 mmHg 83%
    20:00 +16°C° 0.1 mm 2 m/s 756 mmHg 84%
    21:00 +15°C° 0 mm 2 m/s 756 mmHg 85%
    22:00 +15°C° 0 mm 2 m/s 757 mmHg 87%
    23:00 +14°C° 0 mm 2 m/s 757 mmHg 88%

    30 Maio, Sábado

    Tempo Temperatura Precipitação Vento Pressão Humidade
    00:00 +14°C° 0 mm 2 m/s 756 mmHg 88%
    01:00 +13°C° 0 mm 2 m/s 756 mmHg 88%
    02:00 +13°C° 0 mm 1 m/s 756 mmHg 88%
    03:00 +13°C° 0 mm 2 m/s 756 mmHg 87%
    04:00 +13°C° 0 mm 2 m/s 756 mmHg 87%
    05:00 +13°C° 0 mm 2 m/s 756 mmHg 87%
    06:00 +15°C° 0 mm 2 m/s 757 mmHg 81%
    07:00 +18°C° 0 mm 1 m/s 757 mmHg 76%
    08:00 +20°C° 0 mm 1 m/s 757 mmHg 70%
    09:00 +21°C° 0.4 mm 1 m/s 757 mmHg 70%
    10:00 +21°C° 0.4 mm 1 m/s 757 mmHg 71%
    11:00 +22°C° 0.4 mm 1 m/s 757 mmHg 71%
    12:00 +21°C° 0.5 mm 2 m/s 757 mmHg 71%
    13:00 +21°C° 0.5 mm 2 m/s 756 mmHg 71%
    14:00 +21°C° 0.5 mm 3 m/s 756 mmHg 71%
    15:00 +20°C° 0.6 mm 3 m/s 756 mmHg 77%
    16:00 +19°C° 0.6 mm 2 m/s 756 mmHg 83%
    17:00 +18°C° 0.6 mm 2 m/s 756 mmHg 90%
    18:00 +17°C° 0.3 mm 2 m/s 756 mmHg 90%
    19:00 +16°C° 0.3 mm 2 m/s 756 mmHg 91%
    20:00 +16°C° 0.3 mm 2 m/s 756 mmHg 92%
    21:00 +15°C° 0.2 mm 2 m/s 756 mmHg 92%
    22:00 +14°C° 0.2 mm 2 m/s 757 mmHg 93%
    23:00 +13°C° 0.2 mm 2 m/s 757 mmHg 93%

    31 Maio, Domingo

    Tempo Temperatura Precipitação Vento Pressão Humidade
    00:00 +13°C° 0.1 mm 2 m/s 756 mmHg 93%
    01:00 +13°C° 0.1 mm 2 m/s 756 mmHg 93%
    02:00 +12°C° 0.1 mm 3 m/s 756 mmHg 93%
    03:00 +12°C° 0 mm 3 m/s 756 mmHg 93%
    04:00 +11°C° 0 mm 3 m/s 756 mmHg 93%
    05:00 +11°C° 0 mm 3 m/s 756 mmHg 92%
    06:00 +13°C° 0 mm 3 m/s 756 mmHg 90%
    07:00 +14°C° 0 mm 4 m/s 757 mmHg 87%
    08:00 +17°C° 0 mm 4 m/s 757 mmHg 85%
    09:00 +18°C° 0.1 mm 4 m/s 757 mmHg 81%
    10:00 +19°C° 0.1 mm 4 m/s 757 mmHg 76%
    11:00 +20°C° 0.1 mm 5 m/s 757 mmHg 72%
    12:00 +20°C° 0.1 mm 4 m/s 757 mmHg 69%
    13:00 +21°C° 0.1 mm 3 m/s 757 mmHg 67%
    14:00 +22°C° 0.1 mm 3 m/s 756 mmHg 64%
    15:00 +22°C° 0.3 mm 3 m/s 756 mmHg 67%
    16:00 +22°C° 0.3 mm 3 m/s 756 mmHg 71%
    17:00 +22°C° 0.3 mm 3 m/s 756 mmHg 74%
    18:00 +20°C° 0.1 mm 2 m/s 756 mmHg 78%
    19:00 +18°C° 0.1 mm 2 m/s 756 mmHg 82%
    20:00 +17°C° 0.1 mm 2 m/s 756 mmHg 86%
    21:00 +16°C° 0 mm 2 m/s 756 mmHg 86%
    22:00 +15°C° 0 mm 2 m/s 756 mmHg 86%
    23:00 +15°C° 0 mm 1 m/s 756 mmHg 86%

    1 Junho, Segunda-feira

    Tempo Temperatura Precipitação Vento Pressão Humidade
    00:00 +15°C° 0 mm 1 m/s 756 mmHg 86%
    01:00 +14°C° 0 mm 1 m/s 756 mmHg 86%
    02:00 +14°C° 0 mm 1 m/s 756 mmHg 87%
    03:00 +14°C° 0.2 mm 1 m/s 755 mmHg 87%
    04:00 +14°C° 0.2 mm 1 m/s 755 mmHg 88%
    05:00 +14°C° 0.2 mm 2 m/s 755 mmHg 88%
    06:00 +15°C° 0.1 mm 2 m/s 755 mmHg 84%
    07:00 +17°C° 0.1 mm 2 m/s 755 mmHg 81%
    08:00 +19°C° 0.1 mm 2 m/s 755 mmHg 77%
    09:00 +19°C° 0.3 mm 2 m/s 755 mmHg 74%
    10:00 +20°C° 0.3 mm 2 m/s 755 mmHg 71%
    11:00 +21°C° 0.3 mm 2 m/s 755 mmHg 68%
    12:00 +21°C° 0.5 mm 2 m/s 755 mmHg 68%
    13:00 +21°C° 0.5 mm 2 m/s 754 mmHg 67%
    14:00 +23°C° 0.5 mm 2 m/s 754 mmHg 67%
    15:00 +21°C° 0.3 mm 2 m/s 754 mmHg 70%
    16:00 +21°C° 0.3 mm 3 m/s 754 mmHg 73%
    17:00 +20°C° 0.3 mm 3 m/s 753 mmHg 76%
    18:00 +19°C° 0 mm 3 m/s 754 mmHg 79%
    19:00 +18°C° 0 mm 2 m/s 754 mmHg 82%
    20:00 +17°C° 0 mm 2 m/s 754 mmHg 85%
    21:00 +16°C° 0 mm 2 m/s 754 mmHg 86%
    22:00 +16°C° 0 mm 2 m/s 754 mmHg 86%
    23:00 +15°C° 0 mm 2 m/s 754 mmHg 86%
    Mostrar mais